Time,TemperatureF,DewpointF,PressureIn,WindDirection,WindDirectionDegrees,WindSpeedMPH,WindSpeedGustMPH,Humidity,HourlyPrecipIn,Conditions,Clouds,dailyrainin,SoftwareType,DateUTC
2013-05-01 00:01:00,60.1,57.2,29.65,South,180,0.0,0.0,90,0.00,,,0.00,WUHU21623XXSP,2013-05-01 04:01:00,
2013-05-01 00:06:00,60.1,57.2,29.65,South,180,0.0,0.0,90,0.00,,,0.00,WUHU21623XXSP,2013-05-01 04:06:00,
2013-05-01 00:11:00,60.3,57.4,29.66,South,180,0.0,0.0,90,0.00,,,0.00,WUHU21623XXSP,2013-05-01 04:11:00,
2013-05-01 00:16:00,60.1,57.2,29.65,South,180,0.0,0.0,90,0.00,,,0.00,WUHU21623XXSP,2013-05-01 04:16:00,
2013-05-01 00:21:00,59.9,57.0,29.66,South,180,0.0,0.0,90,0.00,,,0.00,WUHU21623XXSP,2013-05-01 04:21:00,
2013-05-01 00:26:00,59.7,56.8,29.66,South,180,0.0,0.0,90,0.00,,,0.00,WUHU21623XXSP,2013-05-01 04:26:00,
2013-05-01 00:31:00,59.7,56.8,29.66,South,180,0.0,0.0,90,0.00,,,0.00,WUHU21623XXSP,2013-05-01 04:31:00,
2013-05-01 00:36:00,59.7,56.8,29.66,South,180,0.0,0.0,90,0.00,,,0.00,WUHU21623XXSP,2013-05-01 04:36:00,
2013-05-01 00:41:00,59.7,56.8,29.66,South,180,0.0,0.0,90,0.00,,,0.00,WUHU21623XXSP,2013-05-01 04:41:00,
2013-05-01 00:46:00,59.7,56.8,29.66,ESE,112,0.0,0.0,90,0.00,,,0.00,WUHU21623XXSP,2013-05-01 04:46:00,
2013-05-01 00:51:00,60.1,57.5,29.66,SE,135,0.0,0.0,91,0.00,,,0.00,WUHU21623XXSP,2013-05-01 04:51:00,
2013-05-01 00:56:00,60.4,57.8,29.66,SSE,157,0.0,3.1,91,0.00,,,0.00,WUHU21623XXSP,2013-05-01 04:56:00,
2013-05-01 01:01:00,60.6,57.7,29.67,South,180,0.0,6.9,90,0.00,,,0.00,WUHU21623XXSP,2013-05-01 05:01:00,
2013-05-01 01:06:00,60.8,57.9,29.67,SSE,157,1.8,6.9,90,0.00,,,0.00,WUHU21623XXSP,2013-05-01 05:06:00,
2013-05-01 01:11:00,61.0,58.4,29.67,SSE,157,0.0,3.6,91,0.00,,,0.00,WUHU21623XXSP,2013-05-01 05:11:00,
2013-05-01 01:16:00,61.0,58.4,29.66,SSE,157,0.0,2.7,91,0.00,,,0.00,WUHU21623XXSP,2013-05-01 05:16:00,
2013-05-01 01:21:00,61.2,58.6,29.66,SE,135,0.0,2.7,91,0.00,,,0.00,WUHU21623XXSP,2013-05-01 05:21:00,
2013-05-01 01:26:00,61.2,58.6,29.66,SE,135,0.0,0.0,91,0.00,,,0.00,WUHU21623XXSP,2013-05-01 05:26:00,
2013-05-01 01:31:00,61.2,58.6,29.66,SE,135,0.0,0.0,91,0.00,,,0.00,WUHU21623XXSP,2013-05-01 05:31:00,
2013-05-01 01:36:00,61.2,58.6,29.66,SE,135,0.0,3.6,91,0.00,,,0.00,WUHU21623XXSP,2013-05-01 05:36:00,
2013-05-01 01:41:00,61.2,58.6,29.66,SSE,157,0.0,4.0,91,0.00,,,0.00,WUHU21623XXSP,2013-05-01 05:41:00,
2013-05-01 01:46:00,61.2,58.6,29.66,South,180,0.0,4.0,91,0.00,,,0.00,WUHU21623XXSP,2013-05-01 05:46:00,
2013-05-01 01:51:00,61.0,58.4,29.66,SE,135,0.0,4.3,91,0.00,,,0.00,WUHU21623XXSP,2013-05-01 05:51:00,
2013-05-01 01:56:00,61.0,58.4,29.65,SE,135,0.0,4.3,91,0.00,,,0.00,WUHU21623XXSP,2013-05-01 05:56:00,
2013-05-01 02:01:00,60.8,58.2,29.65,South,180,0.0,3.1,91,0.00,,,0.00,WUHU21623XXSP,2013-05-01 06:01:00,
2013-05-01 02:06:00,60.6,58.0,29.65,SSW,202,0.0,3.1,91,0.00,,,0.00,WUHU21623XXSP,2013-05-01 06:06:00,
2013-05-01 02:11:00,60.6,58.0,29.66,ESE,112,0.0,4.0,91,0.00,,,0.00,WUHU21623XXSP,2013-05-01 06:11:00,
2013-05-01 02:16:00,60.6,58.0,29.65,SE,135,0.0,4.0,91,0.00,,,0.00,WUHU21623XXSP,2013-05-01 06:16:00,
2013-05-01 02:21:00,60.6,58.0,29.65,SE,135,0.0,0.0,91,0.00,,,0.00,WUHU21623XXSP,2013-05-01 06:21:00,
2013-05-01 02:26:00,60.4,57.8,29.65,SE,135,0.0,1.6,91,0.00,,,0.00,WUHU21623XXSP,2013-05-01 06:26:00,
2013-05-01 02:31:00,60.4,57.8,29.65,South,180,0.0,1.6,91,0.00,,,0.00,WUHU21623XXSP,2013-05-01 06:31:00,
2013-05-01 02:36:00,60.1,57.5,29.65,SE,135,0.0,1.8,91,0.00,,,0.00,WUHU21623XXSP,2013-05-01 06:36:00,
2013-05-01 02:41:00,59.9,57.3,29.65,SSE,157,0.0,1.8,91,0.00,,,0.00,WUHU21623XXSP,2013-05-01 06:41:00,
2013-05-01 02:47:00,59.7,57.1,29.65,SSE,157,0.0,0.0,91,0.00,,,0.00,WUHU21623XXSP,2013-05-01 06:47:00,
2013-05-01 02:51:00,59.7,57.1,29.65,SSE,157,0.0,0.0,91,0.00,,,0.00,WUHU21623XXSP,2013-05-01 06:51:00,
2013-05-01 02:56:00,59.5,56.9,29.65,SSE,157,0.0,0.0,91,0.00,,,0.00,WUHU21623XXSP,2013-05-01 06:56:00,
2013-05-01 03:01:00,59.5,56.9,29.65,SSE,157,0.0,0.0,91,0.00,,,0.00,WUHU21623XXSP,2013-05-01 07:01:00,
2013-05-01 03:06:00,59.5,56.9,29.65,SSE,157,0.0,0.0,91,0.00,,,0.00,WUHU21623XXSP,2013-05-01 07:06:00,
2013-05-01 03:12:00,59.5,56.9,29.65,SSE,157,0.0,0.0,91,0.00,,,0.00,WUHU21623XXSP,2013-05-01 07:12:00,
2013-05-01 03:17:00,59.5,56.7,29.65,SSE,157,0.0,0.0,90,0.00,,,0.00,WUHU21623XXSP,2013-05-01 07:17:00,
2013-05-01 03:22:00,59.7,56.8,29.65,SSE,157,0.0,0.0,90,0.00,,,0.00,WUHU21623XXSP,2013-05-01 07:22:00,
2013-05-01 03:27:00,59.7,56.8,29.65,SSE,157,0.0,0.0,90,0.00,,,0.00,WUHU21623XXSP,2013-05-01 07:27:00,
2013-05-01 03:32:00,59.9,57.0,29.65,SSE,157,0.0,0.0,90,0.00,,,0.00,WUHU21623XXSP,2013-05-01 07:32:00,
2013-05-01 03:37:00,59.9,57.0,29.65,SSE,157,0.0,0.0,90,0.00,,,0.00,WUHU21623XXSP,2013-05-01 07:37:00,
2013-05-01 03:42:00,60.1,57.2,29.65,South,180,0.0,0.0,90,0.00,,,0.00,WUHU21623XXSP,2013-05-01 07:42:00,
2013-05-01 03:47:00,60.1,57.2,29.64,South,180,0.0,0.0,90,0.00,,,0.00,WUHU21623XXSP,2013-05-01 07:47:00,
2013-05-01 03:52:00,60.3,57.4,29.64,South,180,0.0,0.0,90,0.00,,,0.00,WUHU21623XXSP,2013-05-01 07:52:00,
2013-05-01 03:57:00,60.4,57.6,29.65,SSW,202,0.0,0.0,90,0.00,,,0.00,WUHU21623XXSP,2013-05-01 07:57:00,
2013-05-01 04:02:00,60.4,57.6,29.64,NNW,337,0.0,1.8,90,0.00,,,0.00,WUHU21623XXSP,2013-05-01 08:02:00,
2013-05-01 04:07:00,60.4,57.6,29.65,NNW,337,0.0,1.8,90,0.00,,,0.00,WUHU21623XXSP,2013-05-01 08:07:00,
2013-05-01 04:12:00,60.4,57.6,29.65,ESE,112,0.0,0.0,90,0.00,,,0.00,WUHU21623XXSP,2013-05-01 08:12:00,
2013-05-01 04:17:00,60.4,57.6,29.65,ESE,112,0.0,0.0,90,0.00,,,0.00,WUHU21623XXSP,2013-05-01 08:17:00,
2013-05-01 04:22:00,60.4,57.8,29.65,SE,135,0.0,0.0,91,0.00,,,0.00,WUHU21623XXSP,2013-05-01 08:22:00,
2013-05-01 04:27:00,60.4,57.8,29.65,NW,315,0.0,1.6,91,0.00,,,0.00,WUHU21623XXSP,2013-05-01 08:27:00,
2013-05-01 04:32:00,60.4,57.8,29.65,NW,315,0.0,1.6,91,0.00,,,0.00,WUHU21623XXSP,2013-05-01 08:32:00,
2013-05-01 04:37:00,60.4,57.8,29.66,NW,315,0.0,0.0,91,0.00,,,0.00,WUHU21623XXSP,2013-05-01 08:37:00,
2013-05-01 04:42:00,60.1,57.5,29.65,ENE,67,0.0,0.0,91,0.00,,,0.00,WUHU21623XXSP,2013-05-01 08:42:00,
2013-05-01 04:47:00,60.1,57.5,29.65,ENE,67,0.0,0.0,91,0.00,,,0.00,WUHU21623XXSP,2013-05-01 08:47:00,
2013-05-01 04:52:00,60.1,57.5,29.65,SE,135,0.0,0.0,91,0.00,,,0.00,WUHU21623XXSP,2013-05-01 08:52:00,
2013-05-01 04:57:00,59.9,57.3,29.65,ESE,112,0.0,0.0,91,0.00,,,0.00,WUHU21623XXSP,2013-05-01 08:57:00,
2013-05-01 05:02:00,59.9,57.3,29.65,ESE,112,0.0,0.0,91,0.00,,,0.00,WUHU21623XXSP,2013-05-01 09:02:00,
2013-05-01 05:07:00,59.9,57.3,29.65,ESE,112,0.0,0.0,91,0.00,,,0.00,WUHU21623XXSP,2013-05-01 09:07:00,
2013-05-01 05:12:00,59.7,57.1,29.65,ESE,112,0.0,0.0,91,0.00,,,0.00,WUHU21623XXSP,2013-05-01 09:12:00,
2013-05-01 05:17:00,59.7,57.1,29.65,ESE,112,0.0,0.0,91,0.00,,,0.00,WUHU21623XXSP,2013-05-01 09:17:00,
2013-05-01 05:22:00,59.5,56.9,29.65,ESE,112,0.0,0.0,91,0.00,,,0.00,WUHU21623XXSP,2013-05-01 09:22:00,
2013-05-01 05:27:00,58.8,56.2,29.65,ESE,112,0.0,0.0,91,0.00,,,0.00,WUHU21623XXSP,2013-05-01 09:27:00,
2013-05-01 05:32:00,58.8,56.2,29.65,South,180,0.0,0.0,91,0.00,,,0.00,WUHU21623XXSP,2013-05-01 09:32:00,
2013-05-01 05:37:00,58.8,56.2,29.66,South,180,0.0,0.0,91,0.00,,,0.00,WUHU21623XXSP,2013-05-01 09:37:00,
2013-05-01 05:42:00,58.6,56.0,29.66,South,180,0.0,0.0,91,0.00,,,0.00,WUHU21623XXSP,2013-05-01 09:42:00,
2013-05-01 05:47:00,58.8,56.2,29.66,South,180,0.0,0.0,91,0.00,,,0.00,WUHU21623XXSP,2013-05-01 09:47:00,
2013-05-01 05:52:00,58.8,56.2,29.66,South,180,0.0,0.0,91,0.00,,,0.00,WUHU21623XXSP,2013-05-01 09:52:00,
2013-05-01 05:57:00,58.6,56.0,29.66,South,180,0.0,0.0,91,0.00,,,0.00,WUHU21623XXSP,2013-05-01 09:57:00,
2013-05-01 06:02:00,58.1,55.5,29.66,South,180,0.0,0.0,91,0.00,,,0.00,WUHU21623XXSP,2013-05-01 10:02:00,
2013-05-01 06:07:00,57.9,55.3,29.65,South,180,0.0,0.0,91,0.00,,,0.00,WUHU21623XXSP,2013-05-01 10:07:00,
2013-05-01 06:12:00,57.6,55.0,29.66,SSE,157,0.0,0.0,91,0.00,,,0.00,WUHU21623XXSP,2013-05-01 10:12:00,
2013-05-01 06:17:00,57.2,54.6,29.66,SSE,157,0.0,0.0,91,0.00,,,0.00,WUHU21623XXSP,2013-05-01 10:17:00,
2013-05-01 06:22:00,57.0,54.4,29.65,SSE,157,0.0,0.0,91,0.00,,,0.00,WUHU21623XXSP,2013-05-01 10:22:00,
2013-05-01 06:27:00,56.8,54.2,29.66,SSE,157,0.0,0.0,91,0.00,,,0.00,WUHU21623XXSP,2013-05-01 10:27:00,
2013-05-01 06:32:00,56.5,53.9,29.66,SSE,157,0.0,0.0,91,0.00,,,0.00,WUHU21623XXSP,2013-05-01 10:32:00,
2013-05-01 06:37:00,56.5,53.9,29.66,South,180,0.0,0.0,91,0.00,,,0.00,WUHU21623XXSP,2013-05-01 10:37:00,
2013-05-01 06:42:00,56.5,53.9,29.66,South,180,0.0,0.0,91,0.00,,,0.00,WUHU21623XXSP,2013-05-01 10:42:00,
2013-05-01 06:47:00,56.3,53.4,29.66,South,180,0.0,0.0,90,0.00,,,0.00,WUHU21623XXSP,2013-05-01 10:47:00,
2013-05-01 06:52:00,56.3,53.4,29.67,South,180,0.0,0.0,90,0.00,,,0.00,WUHU21623XXSP,2013-05-01 10:52:00,
2013-05-01 06:57:00,56.1,53.2,29.67,South,180,0.0,0.0,90,0.00,,,0.00,WUHU21623XXSP,2013-05-01 10:57:00,
2013-05-01 07:02:00,56.1,53.2,29.67,South,180,0.0,0.0,90,0.00,,,0.00,WUHU21623XXSP,2013-05-01 11:02:00,
2013-05-01 07:07:00,56.1,53.2,29.67,South,180,0.0,0.0,90,0.00,,,0.00,WUHU21623XXSP,2013-05-01 11:07:00,
2013-05-01 07:12:00,56.3,53.4,29.68,SSW,202,0.0,0.0,90,0.00,,,0.00,WUHU21623XXSP,2013-05-01 11:12:00,
2013-05-01 07:17:00,56.5,53.3,29.68,SSW,202,0.0,0.0,89,0.00,,,0.00,WUHU21623XXSP,2013-05-01 11:17:00,
2013-05-01 07:22:00,56.8,53.6,29.68,SSW,202,0.0,0.0,89,0.00,,,0.00,WUHU21623XXSP,2013-05-01 11:22:00,
2013-05-01 07:27:00,57.0,53.8,29.68,ESE,112,0.0,0.0,89,0.00,,,0.00,WUHU21623XXSP,2013-05-01 11:27:00,
2013-05-01 07:32:00,57.4,54.2,29.69,ESE,112,0.0,0.0,89,0.00,,,0.00,WUHU21623XXSP,2013-05-01 11:32:00,
2013-05-01 07:37:00,57.7,54.5,29.69,SSE,157,0.0,0.0,89,0.00,,,0.00,WUHU21623XXSP,2013-05-01 11:37:00,
2013-05-01 07:42:00,58.3,55.1,29.69,SSE,157,0.0,0.0,89,0.00,,,0.00,WUHU21623XXSP,2013-05-01 11:42:00,
2013-05-01 07:47:00,58.8,55.6,29.70,ESE,112,0.0,0.0,89,0.00,,,0.00,WUHU21623XXSP,2013-05-01 11:47:00,
2013-05-01 07:52:00,59.0,55.8,29.70,NE,45,0.0,0.0,89,0.00,,,0.00,WUHU21623XXSP,2013-05-01 11:52:00,
2013-05-01 07:57:00,59.9,57.0,29.70,SSE,157,0.0,2.2,90,0.00,,,0.00,WUHU21623XXSP,2013-05-01 11:57:00,
2013-05-01 08:02:00,60.4,57.8,29.70,SE,135,0.0,2.2,91,0.00,,,0.00,WUHU21623XXSP,2013-05-01 12:02:00,
2013-05-01 08:07:00,61.0,58.4,29.70,SSE,157,0.4,0.4,91,0.00,,,0.00,WUHU21623XXSP,2013-05-01 12:07:00,
2013-05-01 08:12:00,61.2,58.6,29.70,WNW,292,0.0,0.4,91,0.00,,,0.00,WUHU21623XXSP,2013-05-01 12:12:00,
2013-05-01 08:17:00,61.3,58.5,29.71,ESE,112,3.6,3.6,90,0.00,,,0.00,WUHU21623XXSP,2013-05-01 12:17:00,
2013-05-01 08:22:00,61.5,58.3,29.71,SSE,157,0.0,3.6,89,0.00,,,0.00,WUHU21623XXSP,2013-05-01 12:22:00,
2013-05-01 08:27:00,62.4,59.2,29.71,SSE,157,0.0,2.0,89,0.00,,,0.00,WUHU21623XXSP,2013-05-01 12:27:00,
2013-05-01 08:32:00,63.0,59.1,29.71,SSE,157,3.1,3.1,87,0.00,,,0.00,WUHU21623XXSP,2013-05-01 12:32:00,
2013-05-01 08:37:00,63.3,59.1,29.71,SE,135,0.0,3.1,86,0.00,,,0.00,WUHU21623XXSP,2013-05-01 12:37:00,
2013-05-01 08:42:00,64.8,60.2,29.71,ESE,112,0.0,7.2,85,0.00,,,0.00,WUHU21623XXSP,2013-05-01 12:42:00,
2013-05-01 08:47:00,66.6,61.2,29.71,NW,315,0.0,7.2,83,0.00,,,0.00,WUHU21623XXSP,2013-05-01 12:47:00,
2013-05-01 08:52:00,68.4,61.6,29.71,ESE,112,0.0,4.0,79,0.00,,,0.00,WUHU21623XXSP,2013-05-01 12:52:00,
2013-05-01 08:57:00,69.6,61.6,29.71,SSE,157,0.0,4.0,76,0.00,,,0.00,WUHU21623XXSP,2013-05-01 12:57:00,
2013-05-01 09:02:00,70.3,61.2,29.71,NE,45,0.0,2.9,73,0.00,,,0.00,WUHU21623XXSP,2013-05-01 13:02:00,
2013-05-01 09:07:00,70.2,60.3,29.72,SSE,157,5.4,5.4,71,0.00,,,0.00,WUHU21623XXSP,2013-05-01 13:07:00,
2013-05-01 09:12:00,68.9,59.1,29.72,SE,135,0.0,5.4,71,0.00,,,0.00,WUHU21623XXSP,2013-05-01 13:12:00,
2013-05-01 09:17:00,67.8,58.5,29.72,NW,315,0.0,5.4,72,0.00,,,0.00,WUHU21623XXSP,2013-05-01 13:17:00,
2013-05-01 09:22:00,67.5,58.5,29.72,South,180,0.0,5.4,73,0.00,,,0.00,WUHU21623XXSP,2013-05-01 13:22:00,
2013-05-01 09:27:00,67.6,58.7,29.72,SE,135,0.0,2.7,73,0.00,,,0.00,WUHU21623XXSP,2013-05-01 13:27:00,
2013-05-01 09:32:00,67.6,58.7,29.72,WNW,292,0.0,3.1,73,0.00,,,0.00,WUHU21623XXSP,2013-05-01 13:32:00,
2013-05-01 09:37:00,67.8,58.9,29.72,SE,135,0.0,3.1,73,0.00,,,0.00,WUHU21623XXSP,2013-05-01 13:37:00,
2013-05-01 09:42:00,68.5,59.5,29.72,ESE,112,5.1,5.1,73,0.00,,,0.00,WUHU21623XXSP,2013-05-01 13:42:00,
2013-05-01 09:47:00,69.1,59.3,29.73,SE,135,0.0,5.1,71,0.00,,,0.00,WUHU21623XXSP,2013-05-01 13:47:00,
2013-05-01 09:52:00,69.4,59.2,29.73,SE,135,0.0,0.2,70,0.00,,,0.00,WUHU21623XXSP,2013-05-01 13:52:00,
2013-05-01 09:57:00,69.6,59.4,29.73,SSW,202,0.0,1.8,70,0.00,,,0.00,WUHU21623XXSP,2013-05-01 13:57:00,
2013-05-01 10:02:00,69.6,58.9,29.74,ESE,112,0.0,4.3,69,0.00,,,0.00,WUHU21623XXSP,2013-05-01 14:02:00,
2013-05-01 10:07:00,69.4,58.8,29.74,East,90,0.0,4.9,69,0.00,,,0.00,WUHU21623XXSP,2013-05-01 14:07:00,
2013-05-01 10:12:00,69.4,58.8,29.74,SE,135,0.0,4.9,69,0.00,,,0.00,WUHU21623XXSP,2013-05-01 14:12:00,
2013-05-01 10:17:00,70.2,59.5,29.74,ESE,112,0.0,4.5,69,0.00,,,0.00,WUHU21623XXSP,2013-05-01 14:17:00,
2013-05-01 10:22:00,70.7,59.2,29.74,South,180,2.2,2.2,67,0.00,,,0.00,WUHU21623XXSP,2013-05-01 14:22:00,
2013-05-01 10:27:00,71.2,59.3,29.74,SSW,202,0.0,3.6,66,0.00,,,0.00,WUHU21623XXSP,2013-05-01 14:27:00,
2013-05-01 10:32:00,70.9,59.3,29.74,ENE,67,0.0,3.6,67,0.00,,,0.00,WUHU21623XXSP,2013-05-01 14:32:00,
2013-05-01 10:37:00,70.3,58.8,29.74,SE,135,0.0,2.7,67,0.00,,,0.00,WUHU21623XXSP,2013-05-01 14:37:00,
2013-05-01 10:42:00,70.5,59.0,29.74,SE,135,0.0,2.0,67,0.00,,,0.00,WUHU21623XXSP,2013-05-01 14:42:00,
2013-05-01 10:47:00,70.9,59.3,29.74,ESE,112,0.0,2.0,67,0.00,,,0.00,WUHU21623XXSP,2013-05-01 14:47:00,
2013-05-01 10:52:00,72.1,60.1,29.74,ESE,112,0.0,1.6,66,0.00,,,0.00,WUHU21623XXSP,2013-05-01 14:52:00,
2013-05-01 10:57:00,73.2,60.3,29.74,ENE,67,0.0,3.4,64,0.00,,,0.00,WUHU21623XXSP,2013-05-01 14:57:00,
2013-05-01 11:02:00,73.0,59.6,29.74,NE,45,0.0,3.4,63,0.00,,,0.00,WUHU21623XXSP,2013-05-01 15:02:00,
2013-05-01 11:07:00,73.0,59.2,29.74,NE,45,0.0,1.3,62,0.00,,,0.00,WUHU21623XXSP,2013-05-01 15:07:00,
2013-05-01 11:12:00,73.2,59.8,29.73,SE,135,0.0,0.0,63,0.00,,,0.00,WUHU21623XXSP,2013-05-01 15:12:00,
2013-05-01 11:17:00,73.4,59.1,29.73,ESE,112,0.0,4.9,61,0.00,,,0.00,WUHU21623XXSP,2013-05-01 15:17:00,
2013-05-01 11:22:00,72.7,58.4,29.73,ENE,67,3.6,4.9,61,0.00,,,0.00,WUHU21623XXSP,2013-05-01 15:22:00,
2013-05-01 11:27:00,72.3,58.1,29.73,West,270,0.0,7.2,61,0.00,,,0.00,WUHU21623XXSP,2013-05-01 15:27:00,
2013-05-01 11:32:00,72.0,57.8,29.74,SE,135,0.0,7.2,61,0.00,,,0.00,WUHU21623XXSP,2013-05-01 15:32:00,
2013-05-01 11:37:00,72.1,57.9,29.73,NNW,337,0.0,6.5,61,0.00,,,0.00,WUHU21623XXSP,2013-05-01 15:37:00,
2013-05-01 11:42:00,71.8,57.6,29.73,East,90,0.0,3.8,61,0.00,,,0.00,WUHU21623XXSP,2013-05-01 15:42:00,
2013-05-01 11:47:00,71.6,57.5,29.73,WNW,292,0.7,4.7,61,0.00,,,0.00,WUHU21623XXSP,2013-05-01 15:47:00,
2013-05-01 11:52:00,71.2,57.1,29.74,West,270,1.3,5.4,61,0.00,,,0.00,WUHU21623XXSP,2013-05-01 15:52:00,
2013-05-01 11:57:00,71.2,57.1,29.74,West,270,0.0,5.4,61,0.00,,,0.00,WUHU21623XXSP,2013-05-01 15:57:00,
2013-05-01 12:02:00,70.3,56.7,29.74,SE,135,0.0,4.9,62,0.00,,,0.00,WUHU21623XXSP,2013-05-01 16:02:00,
2013-05-01 12:07:00,70.2,57.0,29.74,NW,315,0.0,4.9,63,0.00,,,0.00,WUHU21623XXSP,2013-05-01 16:07:00,
2013-05-01 12:12:00,69.8,56.6,29.74,SW,225,1.8,3.1,63,0.00,,,0.00,WUHU21623XXSP,2013-05-01 16:12:00,
2013-05-01 12:17:00,69.4,56.7,29.74,ENE,67,0.0,6.3,64,0.00,,,0.00,WUHU21623XXSP,2013-05-01 16:17:00,
2013-05-01 12:22:00,69.1,56.4,29.74,South,180,0.0,6.3,64,0.00,,,0.00,WUHU21623XXSP,2013-05-01 16:22:00,
2013-05-01 12:27:00,69.1,56.4,29.75,ESE,112,0.0,5.4,64,0.00,,,0.00,WUHU21623XXSP,2013-05-01 16:27:00,
2013-05-01 12:32:00,69.1,56.4,29.74,NW,315,0.0,5.4,64,0.00,,,0.00,WUHU21623XXSP,2013-05-01 16:32:00,
2013-05-01 12:37:00,69.3,56.9,29.75,ENE,67,0.0,4.7,65,0.00,,,0.00,WUHU21623XXSP,2013-05-01 16:37:00,
2013-05-01 12:42:00,69.4,56.7,29.75,WNW,292,1.1,4.7,64,0.00,,,0.00,WUHU21623XXSP,2013-05-01 16:42:00,
2013-05-01 12:47:00,69.6,56.9,29.75,North,0,0.0,5.1,64,0.00,,,0.00,WUHU21623XXSP,2013-05-01 16:47:00,
2013-05-01 12:52:00,70.0,56.8,29.75,SSE,157,0.0,5.1,63,0.00,,,0.00,WUHU21623XXSP,2013-05-01 16:52:00,
2013-05-01 12:57:00,69.6,56.9,29.75,ENE,67,0.0,3.8,64,0.00,,,0.00,WUHU21623XXSP,2013-05-01 16:57:00,
2013-05-01 13:02:00,69.6,57.3,29.75,East,90,0.0,2.5,65,0.00,,,0.00,WUHU21623XXSP,2013-05-01 17:02:00,
2013-05-01 13:07:00,69.6,56.9,29.75,ENE,67,0.0,1.6,64,0.00,,,0.00,WUHU21623XXSP,2013-05-01 17:07:00,
2013-05-01 13:12:00,69.6,57.3,29.75,SW,225,0.0,1.6,65,0.00,,,0.00,WUHU21623XXSP,2013-05-01 17:12:00,
2013-05-01 13:17:00,69.6,56.9,29.75,South,180,0.0,1.8,64,0.00,,,0.00,WUHU21623XXSP,2013-05-01 17:17:00,
2013-05-01 13:22:00,69.1,56.8,29.75,North,0,0.0,1.8,65,0.00,,,0.00,WUHU21623XXSP,2013-05-01 17:22:00,
2013-05-01 13:27:00,68.9,56.6,29.75,ENE,67,0.0,2.2,65,0.00,,,0.00,WUHU21623XXSP,2013-05-01 17:27:00,
2013-05-01 13:32:00,69.3,56.9,29.74,NNW,337,0.0,2.9,65,0.00,,,0.00,WUHU21623XXSP,2013-05-01 17:32:00,
2013-05-01 13:37:00,70.2,57.4,29.74,ESE,112,0.0,4.0,64,0.00,,,0.00,WUHU21623XXSP,2013-05-01 17:37:00,
2013-05-01 13:42:00,71.1,58.2,29.74,NE,45,0.0,4.0,64,0.00,,,0.00,WUHU21623XXSP,2013-05-01 17:42:00,
2013-05-01 13:47:00,70.7,57.5,29.74,NE,45,0.0,3.1,63,0.00,,,0.00,WUHU21623XXSP,2013-05-01 17:47:00,
2013-05-01 13:52:00,70.9,57.2,29.74,West,270,3.4,3.4,62,0.00,,,0.00,WUHU21623XXSP,2013-05-01 17:52:00,
2013-05-01 13:57:00,70.5,56.9,29.73,SSE,157,0.0,6.5,62,0.00,,,0.00,WUHU21623XXSP,2013-05-01 17:57:00,
2013-05-01 14:02:00,70.0,56.8,29.74,ESE,112,0.0,6.5,63,0.00,,,0.00,WUHU21623XXSP,2013-05-01 18:02:00,
2013-05-01 14:07:00,70.7,57.5,29.73,SSW,202,0.0,3.1,63,0.00,,,0.00,WUHU21623XXSP,2013-05-01 18:07:00,
2013-05-01 14:12:00,72.7,58.9,29.73,NE,45,0.0,3.1,62,0.00,,,0.00,WUHU21623XXSP,2013-05-01 18:12:00,
2013-05-01 14:17:00,73.8,58.5,29.73,SW,225,0.0,4.0,59,0.00,,,0.00,WUHU21623XXSP,2013-05-01 18:17:00,
2013-05-01 14:22:00,73.6,58.3,29.73,SSE,157,0.0,4.5,59,0.00,,,0.00,WUHU21623XXSP,2013-05-01 18:22:00,
2013-05-01 14:27:00,73.2,58.5,29.73,SE,135,0.0,4.5,60,0.00,,,0.00,WUHU21623XXSP,2013-05-01 18:27:00,
2013-05-01 14:32:00,72.7,58.0,29.73,SE,135,0.0,2.5,60,0.00,,,0.00,WUHU21623XXSP,2013-05-01 18:32:00,
2013-05-01 14:38:00,72.3,57.7,29.73,SSE,157,0.0,2.5,60,0.00,,,0.00,WUHU21623XXSP,2013-05-01 18:38:00,
2013-05-01 14:43:00,73.6,58.8,29.73,SE,135,0.0,4.3,60,0.00,,,0.00,WUHU21623XXSP,2013-05-01 18:43:00,
2013-05-01 14:48:00,75.0,59.8,29.72,SSW,202,0.0,4.3,59,0.00,,,0.00,WUHU21623XXSP,2013-05-01 18:48:00,
2013-05-01 14:53:00,74.5,58.7,29.72,SE,135,0.0,3.8,58,0.00,,,0.00,WUHU21623XXSP,2013-05-01 18:53:00,
2013-05-01 14:58:00,73.6,57.8,29.72,SW,225,0.0,3.8,58,0.00,,,0.00,WUHU21623XXSP,2013-05-01 18:58:00,
2013-05-01 15:03:00,73.6,58.8,29.72,South,180,1.1,3.6,60,0.00,,,0.00,WUHU21623XXSP,2013-05-01 19:03:00,
2013-05-01 15:08:00,73.8,59.0,29.72,SE,135,0.0,5.8,60,0.00,,,0.00,WUHU21623XXSP,2013-05-01 19:08:00,
2013-05-01 15:13:00,74.5,59.2,29.72,SE,135,0.0,5.8,59,0.00,,,0.00,WUHU21623XXSP,2013-05-01 19:13:00,
2013-05-01 15:18:00,75.0,59.3,29.71,SSE,157,0.0,4.3,58,0.00,,,0.00,WUHU21623XXSP,2013-05-01 19:18:00,
2013-05-01 15:23:00,75.6,59.3,29.71,SW,225,2.9,4.3,57,0.00,,,0.00,WUHU21623XXSP,2013-05-01 19:23:00,
2013-05-01 15:28:00,75.7,58.9,29.71,West,270,0.0,4.0,56,0.00,,,0.00,WUHU21623XXSP,2013-05-01 19:28:00,
2013-05-01 15:33:00,75.4,58.1,29.71,South,180,0.0,6.0,55,0.00,,,0.00,WUHU21623XXSP,2013-05-01 19:33:00,
2013-05-01 15:38:00,75.7,58.9,29.71,ESE,112,0.0,6.0,56,0.00,,,0.00,WUHU21623XXSP,2013-05-01 19:38:00,
2013-05-01 15:43:00,76.8,59.4,29.70,East,90,0.0,2.9,55,0.00,,,0.00,WUHU21623XXSP,2013-05-01 19:43:00,
2013-05-01 15:48:00,77.5,59.5,29.70,South,180,0.0,2.7,54,0.00,,,0.00,WUHU21623XXSP,2013-05-01 19:48:00,
2013-05-01 15:53:00,76.3,58.9,29.70,ESE,112,0.0,5.6,55,0.00,,,0.00,WUHU21623XXSP,2013-05-01 19:53:00,
2013-05-01 15:58:00,75.4,58.1,29.70,NNE,22,0.0,5.6,55,0.00,,,0.00,WUHU21623XXSP,2013-05-01 19:58:00,
2013-05-01 16:03:00,74.5,57.7,29.71,SSW,202,2.2,4.0,56,0.00,,,0.00,WUHU21623XXSP,2013-05-01 20:03:00,
2013-05-01 16:08:00,73.9,58.2,29.70,NE,45,0.0,2.2,58,0.00,,,0.00,WUHU21623XXSP,2013-05-01 20:08:00,
2013-05-01 16:13:00,73.2,57.5,29.70,NE,45,0.0,0.0,58,0.00,,,0.00,WUHU21623XXSP,2013-05-01 20:13:00,
2013-05-01 16:18:00,73.2,57.5,29.70,SE,135,0.0,0.0,58,0.00,,,0.00,WUHU21623XXSP,2013-05-01 20:18:00,
2013-05-01 16:23:00,73.6,57.8,29.70,SE,135,0.0,4.9,58,0.00,,,0.00,WUHU21623XXSP,2013-05-01 20:23:00,
2013-05-01 16:28:00,74.8,58.1,29.69,SSE,157,0.0,4.9,56,0.00,,,0.00,WUHU21623XXSP,2013-05-01 20:28:00,
2013-05-01 16:33:00,75.4,58.6,29.69,SSE,157,0.0,4.3,56,0.00,,,0.00,WUHU21623XXSP,2013-05-01 20:33:00,
2013-05-01 16:38:00,75.0,57.7,29.69,SSE,157,3.1,4.5,55,0.00,,,0.00,WUHU21623XXSP,2013-05-01 20:38:00,
2013-05-01 16:43:00,73.8,57.0,29.69,NNW,337,0.0,4.5,56,0.00,,,0.00,WUHU21623XXSP,2013-05-01 20:43:00,
2013-05-01 16:48:00,72.1,56.5,29.69,SE,135,0.0,6.0,58,0.00,,,0.00,WUHU21623XXSP,2013-05-01 20:48:00,
2013-05-01 16:53:00,70.9,56.4,29.69,NE,45,0.0,6.0,60,0.00,,,0.00,WUHU21623XXSP,2013-05-01 20:53:00,
2013-05-01 16:58:00,70.5,56.0,29.69,NNE,22,0.0,1.8,60,0.00,,,0.00,WUHU21623XXSP,2013-05-01 20:58:00,
2013-05-01 17:03:00,70.7,56.6,29.69,NE,45,0.0,1.8,61,0.00,,,0.00,WUHU21623XXSP,2013-05-01 21:03:00,
2013-05-01 17:08:00,71.4,57.3,29.69,ENE,67,0.0,0.0,61,0.00,,,0.00,WUHU21623XXSP,2013-05-01 21:08:00,
2013-05-01 17:13:00,72.0,57.8,29.69,SW,225,0.0,0.7,61,0.00,,,0.00,WUHU21623XXSP,2013-05-01 21:13:00,
2013-05-01 17:18:00,72.1,57.5,29.69,SSE,157,0.0,3.4,60,0.00,,,0.00,WUHU21623XXSP,2013-05-01 21:18:00,
2013-05-01 17:23:00,72.1,57.5,29.69,NE,45,0.0,3.4,60,0.00,,,0.00,WUHU21623XXSP,2013-05-01 21:23:00,
2013-05-01 17:28:00,72.0,57.3,29.69,SE,135,0.0,0.0,60,0.00,,,0.00,WUHU21623XXSP,2013-05-01 21:28:00,
2013-05-01 17:33:00,71.4,57.3,29.69,NNW,337,0.0,0.0,61,0.00,,,0.00,WUHU21623XXSP,2013-05-01 21:33:00,
2013-05-01 17:38:00,70.9,56.8,29.69,NNW,337,0.0,0.0,61,0.00,,,0.00,WUHU21623XXSP,2013-05-01 21:38:00,
2013-05-01 17:43:00,70.7,56.6,29.69,SW,225,0.0,2.0,61,0.00,,,0.00,WUHU21623XXSP,2013-05-01 21:43:00,
2013-05-01 17:48:00,70.5,56.5,29.69,West,270,0.0,2.0,61,0.00,,,0.00,WUHU21623XXSP,2013-05-01 21:48:00,
2013-05-01 17:53:00,70.5,56.5,29.69,SSE,157,0.0,2.0,61,0.00,,,0.00,WUHU21623XXSP,2013-05-01 21:53:00,
2013-05-01 17:58:00,70.5,56.9,29.68,East,90,0.0,0.7,62,0.00,,,0.00,WUHU21623XXSP,2013-05-01 21:58:00,
2013-05-01 18:03:00,70.3,56.7,29.69,SE,135,0.0,1.3,62,0.00,,,0.00,WUHU21623XXSP,2013-05-01 22:03:00,
2013-05-01 18:08:00,69.8,56.6,29.69,SE,135,0.0,1.3,63,0.00,,,0.00,WUHU21623XXSP,2013-05-01 22:08:00,
2013-05-01 18:13:00,69.4,56.7,29.69,West,270,0.0,0.0,64,0.00,,,0.00,WUHU21623XXSP,2013-05-01 22:13:00,
2013-05-01 18:18:00,68.9,56.6,29.68,East,90,0.0,5.1,65,0.00,,,0.00,WUHU21623XXSP,2013-05-01 22:18:00,
2013-05-01 18:23:00,68.7,56.4,29.68,ENE,67,0.0,5.1,65,0.00,,,0.00,WUHU21623XXSP,2013-05-01 22:23:00,
2013-05-01 18:28:00,68.5,56.3,29.68,SW,225,0.0,0.0,65,0.00,,,0.00,WUHU21623XXSP,2013-05-01 22:28:00,
2013-05-01 18:33:00,68.4,56.1,29.68,North,0,0.0,0.0,65,0.00,,,0.00,WUHU21623XXSP,2013-05-01 22:33:00,
2013-05-01 18:38:00,68.2,56.4,29.68,South,180,0.0,0.0,66,0.00,,,0.00,WUHU21623XXSP,2013-05-01 22:38:00,
2013-05-01 18:43:00,68.0,56.2,29.68,SSW,202,0.0,0.0,66,0.00,,,0.00,WUHU21623XXSP,2013-05-01 22:43:00,
2013-05-01 18:48:00,67.8,56.4,29.68,ESE,112,0.0,3.8,67,0.00,,,0.00,WUHU21623XXSP,2013-05-01 22:48:00,
2013-05-01 18:53:00,67.8,56.9,29.68,East,90,0.0,3.8,68,0.00,,,0.00,WUHU21623XXSP,2013-05-01 22:53:00,
2013-05-01 18:58:00,67.5,56.5,29.68,SW,225,0.0,6.9,68,0.00,,,0.00,WUHU21623XXSP,2013-05-01 22:58:00,
2013-05-01 19:03:00,67.3,56.3,29.68,SE,135,0.0,6.9,68,0.00,,,0.00,WUHU21623XXSP,2013-05-01 23:03:00,
2013-05-01 19:08:00,66.9,56.0,29.68,NNW,337,0.0,3.8,68,0.00,,,0.00,WUHU21623XXSP,2013-05-01 23:08:00,
2013-05-01 19:13:00,66.7,56.2,29.68,SSE,157,0.0,1.8,69,0.00,,,0.00,WUHU21623XXSP,2013-05-01 23:13:00,
2013-05-01 19:18:00,66.4,56.3,29.68,East,90,0.0,1.8,70,0.00,,,0.00,WUHU21623XXSP,2013-05-01 23:18:00,
2013-05-01 19:23:00,66.0,56.0,29.68,SE,135,0.0,0.0,70,0.00,,,0.00,WUHU21623XXSP,2013-05-01 23:23:00,
2013-05-01 19:28:00,65.8,56.2,29.68,SE,135,0.0,0.0,71,0.00,,,0.00,WUHU21623XXSP,2013-05-01 23:28:00,
2013-05-01 19:33:00,65.3,56.0,29.69,South,180,0.0,0.0,72,0.00,,,0.00,WUHU21623XXSP,2013-05-01 23:33:00,
2013-05-01 19:38:00,64.9,56.1,29.69,South,180,0.0,0.0,73,0.00,,,0.00,WUHU21623XXSP,2013-05-01 23:38:00,
2013-05-01 19:43:00,64.6,56.1,29.69,South,180,0.0,0.0,74,0.00,,,0.00,WUHU21623XXSP,2013-05-01 23:43:00,
2013-05-01 19:48:00,64.2,55.8,29.69,SE,135,0.0,0.0,74,0.00,,,0.00,WUHU21623XXSP,2013-05-01 23:48:00,
2013-05-01 19:53:00,64.2,56.1,29.69,SE,135,0.0,0.7,75,0.00,,,0.00,WUHU21623XXSP,2013-05-01 23:53:00,
2013-05-01 19:58:00,63.7,55.9,29.69,SE,135,0.0,0.7,76,0.00,,,0.00,WUHU21623XXSP,2013-05-01 23:58:00,
2013-05-01 20:03:00,63.3,55.9,29.69,SE,135,0.0,0.0,77,0.00,,,0.00,WUHU21623XXSP,2013-05-02 00:03:00,
2013-05-01 20:08:00,62.8,55.8,29.69,SSE,157,0.0,0.2,78,0.00,,,0.00,WUHU21623XXSP,2013-05-02 00:08:00,
2013-05-01 20:13:00,62.6,55.6,29.69,SSW,202,0.0,0.2,78,0.00,,,0.00,WUHU21623XXSP,2013-05-02 00:13:00,
2013-05-01 20:18:00,62.4,55.8,29.69,SSW,202,0.0,0.0,79,0.00,,,0.00,WUHU21623XXSP,2013-05-02 00:18:00,
2013-05-01 20:23:00,62.2,55.6,29.69,SSE,157,0.0,0.0,79,0.00,,,0.00,WUHU21623XXSP,2013-05-02 00:23:00,
2013-05-01 20:28:00,61.9,55.3,29.69,SSE,157,0.0,0.0,79,0.00,,,0.00,WUHU21623XXSP,2013-05-02 00:28:00,
2013-05-01 20:33:00,61.7,55.5,29.69,SE,135,0.0,0.0,80,0.00,,,0.00,WUHU21623XXSP,2013-05-02 00:33:00,
2013-05-01 20:38:00,61.5,55.7,29.70,SE,135,0.0,0.0,81,0.00,,,0.00,WUHU21623XXSP,2013-05-02 00:38:00,
2013-05-01 20:43:00,61.5,55.7,29.70,SE,135,0.0,0.0,81,0.00,,,0.00,WUHU21623XXSP,2013-05-02 00:43:00,
2013-05-01 20:48:00,61.5,55.7,29.70,SE,135,0.0,0.0,81,0.00,,,0.00,WUHU21623XXSP,2013-05-02 00:48:00,
2013-05-01 20:53:00,61.3,55.8,29.70,SE,135,0.0,0.0,82,0.00,,,0.00,WUHU21623XXSP,2013-05-02 00:53:00,
2013-05-01 20:58:00,61.2,55.7,29.70,SSE,157,0.0,0.0,82,0.00,,,0.00,WUHU21623XXSP,2013-05-02 00:58:00,
2013-05-01 21:03:00,61.0,55.5,29.70,SSE,157,0.0,0.0,82,0.00,,,0.00,WUHU21623XXSP,2013-05-02 01:03:00,
2013-05-01 21:08:00,61.0,55.5,29.70,SSE,157,0.0,0.0,82,0.00,,,0.00,WUHU21623XXSP,2013-05-02 01:08:00,
2013-05-01 21:13:00,61.0,55.8,29.71,SSE,157,0.0,0.0,83,0.00,,,0.00,WUHU21623XXSP,2013-05-02 01:13:00,
2013-05-01 21:18:00,60.6,55.5,29.71,SSE,157,0.0,0.0,83,0.00,,,0.00,WUHU21623XXSP,2013-05-02 01:18:00,
2013-05-01 21:23:00,60.6,55.5,29.71,SSE,157,0.0,0.0,83,0.00,,,0.00,WUHU21623XXSP,2013-05-02 01:23:00,
2013-05-01 21:28:00,60.4,55.6,29.71,SSE,157,0.0,0.0,84,0.00,,,0.00,WUHU21623XXSP,2013-05-02 01:28:00,
2013-05-01 21:33:00,60.4,55.6,29.72,SSE,157,0.0,0.0,84,0.00,,,0.00,WUHU21623XXSP,2013-05-02 01:33:00,
2013-05-01 21:38:00,60.4,55.6,29.72,SSE,157,0.0,0.0,84,0.00,,,0.00,WUHU21623XXSP,2013-05-02 01:38:00,
2013-05-01 21:43:00,60.3,55.4,29.72,SE,135,0.0,0.0,84,0.00,,,0.00,WUHU21623XXSP,2013-05-02 01:43:00,
2013-05-01 21:48:00,60.3,55.4,29.72,SE,135,0.0,0.0,84,0.00,,,0.00,WUHU21623XXSP,2013-05-02 01:48:00,
2013-05-01 21:53:00,60.1,55.6,29.72,SE,135,0.0,0.0,85,0.00,,,0.00,WUHU21623XXSP,2013-05-02 01:53:00,
2013-05-01 21:58:00,60.1,55.6,29.73,SE,135,0.0,0.0,85,0.00,,,0.00,WUHU21623XXSP,2013-05-02 01:58:00,
2013-05-01 22:03:00,60.1,55.9,29.72,SE,135,0.0,0.0,86,0.00,,,0.00,WUHU21623XXSP,2013-05-02 02:03:00,
2013-05-01 22:08:00,60.1,55.9,29.73,SE,135,0.0,0.0,86,0.00,,,0.00,WUHU21623XXSP,2013-05-02 02:08:00,
2013-05-01 22:13:00,60.1,55.9,29.73,SE,135,0.0,0.0,86,0.00,,,0.00,WUHU21623XXSP,2013-05-02 02:13:00,
2013-05-01 22:18:00,59.9,55.7,29.73,SE,135,0.0,0.0,86,0.00,,,0.00,WUHU21623XXSP,2013-05-02 02:18:00,
2013-05-01 22:23:00,59.7,55.5,29.73,SE,135,0.0,0.0,86,0.00,,,0.00,WUHU21623XXSP,2013-05-02 02:23:00,
2013-05-01 22:28:00,59.7,55.9,29.73,SE,135,0.0,0.0,87,0.00,,,0.00,WUHU21623XXSP,2013-05-02 02:28:00,
2013-05-01 22:33:00,59.7,55.9,29.73,SE,135,0.0,0.0,87,0.00,,,0.00,WUHU21623XXSP,2013-05-02 02:33:00,
2013-05-01 22:38:00,59.5,55.7,29.74,SE,135,0.0,0.0,87,0.00,,,0.00,WUHU21623XXSP,2013-05-02 02:38:00,
2013-05-01 22:43:00,59.7,55.9,29.73,SE,135,0.0,0.0,87,0.00,,,0.00,WUHU21623XXSP,2013-05-02 02:43:00,
2013-05-01 22:48:00,59.7,55.9,29.73,SE,135,0.0,0.0,87,0.00,,,0.00,WUHU21623XXSP,2013-05-02 02:48:00,
2013-05-01 22:54:00,59.7,55.9,29.73,SE,135,0.0,0.0,87,0.00,,,0.00,WUHU21623XXSP,2013-05-02 02:54:00,
2013-05-01 22:59:00,59.9,56.0,29.74,SSE,157,0.0,0.0,87,0.00,,,0.00,WUHU21623XXSP,2013-05-02 02:59:00,
2013-05-01 23:04:00,60.1,56.2,29.73,SE,135,0.0,0.0,87,0.00,,,0.00,WUHU21623XXSP,2013-05-02 03:04:00,
2013-05-01 23:09:00,60.4,56.6,29.73,SE,135,0.0,0.0,87,0.00,,,0.00,WUHU21623XXSP,2013-05-02 03:09:00,
2013-05-01 23:14:00,60.6,56.8,29.73,SE,135,0.0,0.0,87,0.00,,,0.00,WUHU21623XXSP,2013-05-02 03:14:00,
2013-05-01 23:19:00,60.6,56.8,29.73,NW,315,0.0,0.0,87,0.00,,,0.00,WUHU21623XXSP,2013-05-02 03:19:00,
2013-05-01 23:24:00,60.6,56.4,29.73,NNE,22,0.0,0.0,86,0.00,,,0.00,WUHU21623XXSP,2013-05-02 03:24:00,
2013-05-01 23:29:00,60.6,56.4,29.73,SE,135,0.0,4.5,86,0.00,,,0.00,WUHU21623XXSP,2013-05-02 03:29:00,
2013-05-01 23:34:00,61.0,56.8,29.73,SSE,157,0.0,4.5,86,0.00,,,0.00,WUHU21623XXSP,2013-05-02 03:34:00,
2013-05-01 23:39:00,61.0,56.8,29.73,SSE,157,0.0,2.7,86,0.00,,,0.00,WUHU21623XXSP,2013-05-02 03:39:00,
2013-05-01 23:44:00,61.0,56.8,29.73,SSE,157,0.0,2.7,86,0.00,,,0.00,WUHU21623XXSP,2013-05-02 03:44:00,
2013-05-01 23:49:00,61.0,56.5,29.73,WSW,247,0.0,4.5,85,0.00,,,0.00,WUHU21623XXSP,2013-05-02 03:49:00,
2013-05-01 23:54:00,60.8,56.3,29.73,SE,135,0.0,4.5,85,0.00,,,0.00,WUHU21623XXSP,2013-05-02 03:54:00,
2013-05-01 23:59:00,60.6,56.1,29.73,SE,135,0.0,3.1,85,0.00,,,0.00,WUHU21623XXSP,2013-05-02 03:59:00,